• Em Portugal
  • Lista de países
  • Para 7 dias
  • Temperatura da água
  • Mapas de satélite
  • Mapa do tempo
  • Widgets de tempo
  • user-avatar
    Iniciar Sessão

    Previsão horária em Ischgl

    Hoje, 14 Agosto, Terça-feira

    Tempo Temperatura Precipitação Vento Pressão Humidade
    00:00 +7°C° 0,7 mm 1 m/s 575 mmHg 96%
    01:00 +6°C° 0 mm 2 m/s 575 mmHg 96%
    02:00 +6°C° 0,1 mm 2 m/s 575 mmHg 96%
    03:00 +6°C° 0,1 mm 1 m/s 574 mmHg 96%
    04:00 +6°C° 0,1 mm 1 m/s 574 mmHg 96%
    05:00 +7°C° 0,1 mm 1 m/s 575 mmHg 95%
    06:00 +7°C° 0,1 mm 1 m/s 575 mmHg 93%
    07:00 +7°C° 0,1 mm 1 m/s 575 mmHg 92%
    08:00 +8°C° 0,4 mm 1 m/s 576 mmHg 88%
    09:00 +8°C° 0,4 mm 2 m/s 576 mmHg 83%
    10:00 +9°C° 0,4 mm 2 m/s 577 mmHg 78%
    11:00 +10°C° 0,6 mm 2 m/s 577 mmHg 76%
    12:00 +10°C° 0,6 mm 2 m/s 578 mmHg 74%
    13:00 +12°C° 0,6 mm 2 m/s 578 mmHg 72%
    14:00 +12°C° 0,8 mm 2 m/s 578 mmHg 74%
    15:00 +10°C° 0,8 mm 2 m/s 578 mmHg 77%
    16:00 +10°C° 0,8 mm 2 m/s 578 mmHg 80%
    17:00 +9°C° 0,4 mm 2 m/s 577 mmHg 84%
    18:00 +8°C° 0,4 mm 2 m/s 577 mmHg 87%
    19:00 +7°C° 0,4 mm 2 m/s 577 mmHg 91%
    20:00 +7°C° 0 mm 2 m/s 577 mmHg 92%
    21:00 +6°C° 0 mm 2 m/s 577 mmHg 93%
    22:00 +5°C° 0 mm 2 m/s 577 mmHg 94%
    23:00 +5°C° 0 mm 2 m/s 577 mmHg 94%

    Amanhã, 15 Agosto, Quarta-feira

    Tempo Temperatura Precipitação Vento Pressão Humidade
    00:00 +4°C° 0 mm 2 m/s 577 mmHg 94%
    01:00 +5°C° 0 mm 1 m/s 577 mmHg 94%
    02:00 +5°C° 0 mm 1 m/s 577 mmHg 94%
    03:00 +4°C° 0 mm 1 m/s 577 mmHg 95%
    04:00 +4°C° 0 mm 1 m/s 576 mmHg 95%
    05:00 +5°C° 0 mm 1 m/s 577 mmHg 92%
    06:00 +5°C° 0 mm 1 m/s 577 mmHg 90%
    07:00 +6°C° 0 mm 1 m/s 578 mmHg 87%
    08:00 +9°C° 0 mm 1 m/s 579 mmHg 77%
    09:00 +11°C° 0 mm 1 m/s 580 mmHg 67%
    10:00 +13°C° 0 mm 1 m/s 581 mmHg 57%
    11:00 +14°C° 0 mm 1 m/s 582 mmHg 54%
    12:00 +15°C° 0 mm 1 m/s 582 mmHg 51%
    13:00 +15°C° 0 mm 2 m/s 582 mmHg 49%
    14:00 +15°C° 0 mm 2 m/s 582 mmHg 51%
    15:00 +15°C° 0 mm 2 m/s 582 mmHg 54%
    16:00 +15°C° 0 mm 2 m/s 581 mmHg 56%
    17:00 +13°C° 0,1 mm 2 m/s 581 mmHg 65%
    18:00 +12°C° 0,1 mm 2 m/s 580 mmHg 74%
    19:00 +11°C° 0,1 mm 1 m/s 580 mmHg 83%
    20:00 +9°C° 0 mm 1 m/s 579 mmHg 87%
    21:00 +8°C° 0 mm 1 m/s 579 mmHg 91%
    22:00 +7°C° 0 mm 1 m/s 579 mmHg 95%
    23:00 +7°C° 0 mm 1 m/s 578 mmHg 95%

    Depois de amanhã, 16 Agosto, Quinta-feira

    Tempo Temperatura Precipitação Vento Pressão Humidade
    00:00 +6°C° 0 mm 1 m/s 578 mmHg 94%
    01:00 +6°C° 0 mm 1 m/s 578 mmHg 94%
    02:00 +6°C° 0 mm 1 m/s 578 mmHg 93%
    03:00 +5°C° 0 mm 1 m/s 578 mmHg 93%
    04:00 +5°C° 0 mm 1 m/s 577 mmHg 92%
    05:00 +7°C° 0 mm 1 m/s 578 mmHg 89%
    06:00 +8°C° 0 mm 1 m/s 579 mmHg 85%
    07:00 +9°C° 0 mm 1 m/s 579 mmHg 82%
    08:00 +11°C° 0 mm 1 m/s 580 mmHg 72%
    09:00 +14°C° 0 mm 1 m/s 581 mmHg 63%
    10:00 +16°C° 0 mm 1 m/s 582 mmHg 53%
    11:00 +16°C° 0 mm 1 m/s 582 mmHg 51%
    12:00 +18°C° 0 mm 1 m/s 582 mmHg 49%
    13:00 +19°C° 0 mm 1 m/s 582 mmHg 46%
    14:00 +18°C° 0,2 mm 1 m/s 582 mmHg 49%
    15:00 +17°C° 0,2 mm 2 m/s 581 mmHg 52%
    16:00 +16°C° 0,2 mm 2 m/s 581 mmHg 55%
    17:00 +15°C° 0,4 mm 1 m/s 580 mmHg 65%
    18:00 +13°C° 0,4 mm 1 m/s 579 mmHg 74%
    19:00 +12°C° 0,4 mm 1 m/s 579 mmHg 83%
    20:00 +11°C° 0,3 mm 1 m/s 578 mmHg 86%
    21:00 +9°C° 0,3 mm 1 m/s 578 mmHg 89%
    22:00 +7°C° 0,3 mm 0 m/s 578 mmHg 92%
    23:00 +8°C° 0,2 mm 1 m/s 578 mmHg 92%

    17 Agosto, Sexta-feira

    Tempo Temperatura Precipitação Vento Pressão Humidade
    00:00 +8°C° 0,2 mm 1 m/s 577 mmHg 92%
    01:00 +8°C° 0,2 mm 1 m/s 577 mmHg 91%
    02:00 +8°C° 0,1 mm 1 m/s 577 mmHg 91%
    03:00 +7°C° 0,1 mm 1 m/s 577 mmHg 92%
    04:00 +7°C° 0,1 mm 1 m/s 577 mmHg 92%
    05:00 +8°C° 0 mm 1 m/s 577 mmHg 89%
    06:00 +9°C° 0 mm 1 m/s 578 mmHg 86%
    07:00 +10°C° 0 mm 1 m/s 578 mmHg 83%
    08:00 +12°C° 0,3 mm 1 m/s 579 mmHg 78%
    09:00 +13°C° 0,3 mm 1 m/s 580 mmHg 73%
    10:00 +14°C° 0,3 mm 1 m/s 580 mmHg 68%
    11:00 +14°C° 1,1 mm 1 m/s 580 mmHg 69%
    12:00 +14°C° 1,1 mm 2 m/s 580 mmHg 70%
    13:00 +14°C° 1,1 mm 2 m/s 580 mmHg 70%
    14:00 +14°C° 1,5 mm 2 m/s 580 mmHg 75%
    15:00 +13°C° 1,5 mm 2 m/s 580 mmHg 79%
    16:00 +12°C° 1,5 mm 2 m/s 579 mmHg 84%
    17:00 +10°C° 1,6 mm 2 m/s 579 mmHg 87%
    18:00 +9°C° 1,6 mm 2 m/s 579 mmHg 91%
    19:00 +8°C° 1,6 mm 2 m/s 579 mmHg 95%
    20:00 +8°C° 0,9 mm 2 m/s 579 mmHg 95%
    21:00 +7°C° 0,9 mm 2 m/s 579 mmHg 96%
    22:00 +7°C° 0,9 mm 2 m/s 579 mmHg 97%
    23:00 +7°C° 0,3 mm 2 m/s 579 mmHg 96%

    18 Agosto, Sábado

    Tempo Temperatura Precipitação Vento Pressão Humidade
    00:00 +7°C° 0,3 mm 1 m/s 579 mmHg 96%
    01:00 +7°C° 0,3 mm 1 m/s 579 mmHg 96%
    02:00 +7°C° 0,3 mm 1 m/s 579 mmHg 96%
    03:00 +7°C° 0,3 mm 1 m/s 579 mmHg 96%
    04:00 +7°C° 0,3 mm 1 m/s 579 mmHg 96%
    05:00 +7°C° 0,3 mm 1 m/s 579 mmHg 95%
    06:00 +7°C° 0,3 mm 1 m/s 579 mmHg 95%
    07:00 +7°C° 0,3 mm 1 m/s 579 mmHg 94%
    08:00 +8°C° 0,2 mm 1 m/s 580 mmHg 89%
    09:00 +9°C° 0,2 mm 1 m/s 580 mmHg 85%
    10:00 +10°C° 0,2 mm 1 m/s 581 mmHg 80%
    11:00 +11°C° 0,3 mm 1 m/s 581 mmHg 76%
    12:00 +12°C° 0,3 mm 1 m/s 582 mmHg 72%
    13:00 +13°C° 0,3 mm 1 m/s 582 mmHg 67%
    14:00 +13°C° 0,4 mm 2 m/s 582 mmHg 69%
    15:00 +13°C° 0,4 mm 2 m/s 581 mmHg 71%
    16:00 +13°C° 0,4 mm 2 m/s 581 mmHg 72%
    17:00 +12°C° 0,3 mm 2 m/s 581 mmHg 78%
    18:00 +10°C° 0,3 mm 2 m/s 581 mmHg 84%
    19:00 +10°C° 0,3 mm 1 m/s 580 mmHg 90%
    20:00 +9°C° 0,1 mm 1 m/s 580 mmHg 92%
    21:00 +8°C° 0,1 mm 1 m/s 580 mmHg 94%
    22:00 +8°C° 0,1 mm 1 m/s 580 mmHg 95%
    23:00 +7°C° 0 mm 1 m/s 580 mmHg 95%

    19 Agosto, Domingo

    Tempo Temperatura Precipitação Vento Pressão Humidade
    00:00 +7°C° 0 mm 1 m/s 580 mmHg 95%
    01:00 +6°C° 0 mm 1 m/s 580 mmHg 95%
    02:00 +6°C° 0 mm 1 m/s 580 mmHg 95%
    03:00 +6°C° 0 mm 1 m/s 579 mmHg 95%
    04:00 +5°C° 0 mm 1 m/s 579 mmHg 95%
    05:00 +6°C° 0 mm 1 m/s 580 mmHg 92%
    06:00 +7°C° 0 mm 1 m/s 580 mmHg 89%
    07:00 +7°C° 0 mm 0 m/s 581 mmHg 87%
    08:00 +10°C° 0 mm 1 m/s 582 mmHg 77%
    09:00 +12°C° 0 mm 1 m/s 583 mmHg 67%
    10:00 +14°C° 0 mm 1 m/s 584 mmHg 58%
    11:00 +15°C° 0 mm 1 m/s 584 mmHg 53%
    12:00 +16°C° 0 mm 1 m/s 584 mmHg 49%
    13:00 +17°C° 0 mm 2 m/s 584 mmHg 45%
    14:00 +16°C° 0 mm 2 m/s 584 mmHg 47%
    15:00 +16°C° 0 mm 2 m/s 584 mmHg 50%
    16:00 +16°C° 0 mm 2 m/s 583 mmHg 52%
    17:00 +14°C° 0 mm 2 m/s 583 mmHg 62%
    18:00 +13°C° 0 mm 2 m/s 582 mmHg 72%
    19:00 +11°C° 0 mm 1 m/s 581 mmHg 82%
    20:00 +10°C° 0 mm 1 m/s 581 mmHg 86%
    21:00 +8°C° 0 mm 1 m/s 581 mmHg 89%
    22:00 +7°C° 0 mm 1 m/s 580 mmHg 93%
    23:00 +7°C° 0 mm 1 m/s 580 mmHg 93%
    Mostrar mais